Skip Page Navigation
NASA JPL Caltech
NASA Logo - Jet Propulsion Laboratory + View the NASA Portal
+ Near-Earth Object (NEO) Program
Search JPL
JPL Home Earth Solar System Stars & Galaxies Technology
JPL Solar System Dynamics
BODIES ORBITS EPHEMERIDES TOOLS PHYSICAL DATA DISCOVERY FAQ SITE MAP
JPL Small-Body Database Browser
Search: [ help ]  
139211 (2001 GN2)
Classification: Amor [NEO, PHA]          SPK-ID: 2139211
Ephemeris | Orbit Diagram | Orbital Elements | Physical Parameters | Discovery Circumstances | Close-Approach Data ]

[ hide orbit diagram ]
Orbit Diagram
Note: Make sure you have Java enabled on your browser to see the applet. This applet is provided as a 3D orbit visualization tool. The applet was implemented using 2-body methods, and hence should not be used for determining accurate long-term trajectories (over several years or decades) or planetary encounter circumstances. For accurate long-term ephemerides, please instead use our Horizons system.
Orbit Viewer

Additional Notes: the orbits shown in the applet are color coded. The planets are white lines, and the asteroid/comet is a blue line. The bright white line indicates the portion of the orbit that is above the ecliptic plane, and the darker portion is below the ecliptic plane. Likewise for the asteroid/comet orbit, the light blue indicates the portion above the ecliptic plane, and the dark blue the portion below the ecliptic plane.

Orbit Viewer applet originally written and kindly provided by Osamu Ajiki (AstroArts), and further modified by Ron Baalke (JPL).


Orbital Elements at Epoch 2456400.5 (2013-Apr-18.0) TDB
Reference: JPL 39 (heliocentric ecliptic J2000)
 Element Value Uncertainty (1-sigma)   Units 
e .4522395256592541 1.4374e-07  
a 1.859444483167649 3.2573e-08 AU
q 1.018530192110194 2.7687e-07 AU
i 26.06709786795943 4.3177e-05 deg
node 173.5925710630628 6.7649e-05 deg
peri 3.349927273288915 6.9811e-05 deg
M 274.3713700682999 4.277e-05 deg
tp 2456620.787445032779
(2013-Nov-24.28744503)
0.00011555 JED
period 926.1327697880382
2.54
2.4336e-05
6.663e-08
d
yr
n .3887131648331505 1.0214e-08 deg/d
Q 2.700358774225103 4.7304e-08 AU
  Orbit Determination Parameters
   # obs. used (total)      182  
   data-arc span      3600 days (9.86 yr)  
   first obs. used      1999-09-07  
   last obs. used      2009-07-16  
   planetary ephem.      DE405  
   SB-pert. ephem.      SB405-CPV-2  
   condition code      0  
   fit RMS      .46898  
   data source      ORB  
   producer      Otto Matic  
   solution date      2013-Apr-29 15:38:53  

Additional Information
 Earth MOID = .0245473 AU 
 T_jup = 3.756 
[ show covariance matrix ]

Ephemeris | Orbit Diagram | Orbital Elements | Physical Parameters | Discovery Circumstances | Close-Approach Data ]

Physical Parameter Table
Parameter Symbol Value Units Sigma Reference Notes
absolute magnitude H 17.731 mag .93137 39 autocmod 2.5c

139211 (2001 GN2)          Discovered 2001-Apr-12 by LINEAR at Socorro (704)
Reference: 20061205/Numbers.arcLast Updated: 2006-12-13

[ show close-approach data ]
Ephemeris | Orbit Diagram | Orbital Elements | Physical Parameters | Discovery Circumstances | Close-Approach Data ]
ABOUT SSD CREDITS/AWARDS PRIVACY/COPYRIGHT GLOSSARY LINKS
FirstGov 2013-May-25 21:12 UT
(server date/time)  
NASA Home Page
Site Manager:   Donald K. Yeomans
Webmaster  Alan B. Chamberlin